Location: Peebles
(55.6412°N, 3.1714°W)
Time: 23:55:48
(UTC+01:00)

CENTAUR R/B - Pass Details

Date: 26 January 2022
Orbit: 716 x 1471 km, 63.4° (Epoch: 08 May)

Event Time Altitude Azimuth Distance (km) Brightness Sun altitude
Rises 18:52:49 0° 272° (W) 3,668 7.1 -19.1°
Reaches altitude 10° 18:55:19 10° 278° (W) 2,824 6.1 -19.4°
Maximum altitude 19:01:52 49° 352° (N) 1,486 3.4 -20.4°
Enters shadow 19:06:07 26° 53° (NE) 2,254 3.9 -21.0°
